EW4785 Weather Reports


Display with metric or nautical units.
time (UTC)temp
F
wind
direction
speed
MPH
gust
MPH
rain 1hr
in
rain 24hr
in
rain mn
in
humidity
%
barometer
mb
20260508214530 68 170 1.0 5.0 0.00 0.03 0.00 37 1014.7
20260508213029 69 199 1.0 5.0 0.00 0.03 0.00 40 1014.8
20260508211528 69 240 1.0 4.0 0.00 0.03 0.00 37 1014.7
20260508210029 69 199 0.0 4.0 0.00 0.03 0.00 37 1014.9
20260508204528 69 180 1.0 7.0 0.00 0.06 0.00 33 1015.0
20260508203027 70 297 0.0 8.0 0.00 0.06 0.00 37 1015.3
20260508201528 70 147 1.0 6.0 0.00 0.06 0.00 36 1015.4
20260508200026 70 111 2.0 7.0 0.00 0.06 0.00 35 1015.4
20260508194526 70 238 1.0 4.0 0.00 0.06 0.00 34 1015.3
20260508193024 70 171 1.0 5.0 0.00 0.06 0.00 34 1015.8
20260508191522 69 223 2.0 5.0 0.00 0.06 0.00 34 1015.9
20260508190021 69 208 1.0 5.0 0.00 0.06 0.00 33 1016.3
20260508184523 69 236 2.0 7.0 0.00 0.06 0.00 32 1016.6
20260508183018 69 225 1.0 3.0 0.00 0.06 0.00 39 1016.7
20260508181518 69 173 1.0 8.0 0.00 0.06 0.00 37 1016.9
20260508180017 68 5 1.0 6.0 0.00 0.06 0.00 40 1016.8
20260508174516 68 151 0.0 3.0 0.00 0.06 0.00 40 1017.1
20260508173011 67 92 1.0 4.0 0.00 0.06 0.00 45 1017.3
20260508171511 67 180 1.0 4.0 0.00 0.06 0.00 42 1017.3
20260508170010 66 159 2.0 6.0 0.00 0.06 0.00 40 1017.4
20260508164512 67 240 0.0 3.0 0.00 0.06 0.00 42 1017.7
20260508163004 65 94 0.0 3.0 0.00 0.06 0.00 47 1017.9
20260508161507 64 297 1.0 5.0 0.00 0.06 0.00 48 1018.1
20260508160001 64 344 0.0 5.0 0.00 0.13 0.00 53 1018.3
20260508154601 64 159 1.0 4.0 0.00 0.13 0.00 46 1018.4
20260508153058 64 250 0.0 3.0 0.00 0.13 0.00 55 1018.6
20260508151558 63 192 0.0 3.0 0.00 0.13 0.00 53 1018.7
20260508150052 61 219 1.0 6.0 0.00 0.13 0.00 54 1018.8
20260508144548 60 101 0.0 2.0 0.00 0.16 0.00 58 1018.7
20260508143045 60 31 0.0 2.0 0.00 0.16 0.00 66 1018.6
20260508141541 58 166 0.0 2.0 0.00 0.16 0.00 74 1018.6
20260508140039 56 360 0.0 3.0 0.00 0.16 0.00 77 1018.5
20260508134535 53 271 0.0 2.0 0.00 0.26 0.00 84 1018.4
20260508133031 51 201 0.0 1.0 0.00 0.26 0.00 92 1018.3
20260508131525 49 196 0.0 2.0 0.00 0.26 0.00 95 1018.3
20260508130025 48 55 0.0 2.0 0.00 0.26 0.00 98 1018.1
20260508124522 47 154 0.0 2.0 0.00 0.31 0.00 98 1018.1
20260508123022 46 154 0.0 1.0 0.00 0.31 0.00 98 1018.0
20260508121520 45 154 0.0 0.0 0.00 0.31 0.00 98 1017.7
20260508120018 45 154 0.0 0.0 0.00 0.31 0.00 98 1017.4
20260508114517 44 154 0.0 0.0 0.00 0.33 0.00 98 1017.3
20260508113018 44 154 0.0 1.0 0.00 0.33 0.00 98 1017.2
20260508111520 43 154 0.0 0.0 0.00 0.33 0.00 97 1016.9
20260508110012 43 154 0.0 0.0 0.00 0.33 0.00 97 1016.7
20260508104510 43 154 0.0 0.0 0.00 0.36 0.00 97 1016.5
20260508103007 43 154 0.0 0.0 0.00 0.36 0.00 97 1016.3
20260508101506 43 154 0.0 0.0 0.00 0.36 0.00 97 1015.9
20260508100012 44 154 0.0 0.0 0.00 0.36 0.00 97 1015.8
20260508094501 44 154 0.0 0.0 0.00 0.37 0.00 97 1015.6
20260508093104 44 154 0.0 0.0 0.00 0.37 0.00 97 1015.5
20260508091619 45 154 0.0 0.0 0.00 0.37 0.00 97 1015.5
20260508090108 45 154 0.0 0.0 0.00 0.37 0.00 97 1015.5
20260508084553 46 154 0.0 1.0 0.00 0.39 0.00 97 1015.3
20260508083107 46 154 0.0 0.0 0.00 0.39 0.00 97 1015.0
20260508081557 46 154 0.0 1.0 0.00 0.39 0.00 97 1014.8
20260508080057 47 154 0.0 1.0 0.00 0.39 0.00 97 1014.7
20260508074547 47 154 0.0 1.0 0.00 0.40 0.00 97 1014.7
20260508073047 47 154 0.0 1.0 0.00 0.40 0.00 97 1014.7
20260508071545 46 154 0.0 0.0 0.00 0.40 0.00 97 1014.4
20260508070128 47 154 0.0 0.0 0.00 0.40 0.00 97 1014.4
20260508064540 48 154 0.0 2.0 0.00 0.41 0.00 97 1014.2
20260508063039 48 154 0.0 1.0 0.00 0.41 0.00 97 1014.2
20260508061544 48 154 0.0 1.0 0.00 0.41 0.00 97 1014.4
20260508060035 49 154 0.0 0.0 0.00 0.41 0.00 97 1014.2
20260508054533 49 154 0.0 0.0 0.00 0.42 0.00 97 1014.3
20260508053033 49 154 0.0 0.0 0.00 0.42 0.00 97 1014.3
20260508051531 49 154 0.0 0.0 0.00 0.42 0.00 97 1014.2
20260508050028 49 154 0.0 0.0 0.00 0.42 0.00 97 1014.1
20260508044527 49 154 0.0 0.0 0.00 0.49 0.00 97 1013.9
20260508043047 49 154 0.0 0.0 0.00 0.49 0.00 97 1013.8
20260508041523 49 154 0.0 0.0 0.00 0.49 0.00 97 1013.6
20260508040024 50 154 0.0 0.0 0.00 0.49 0.00 96 1013.6
20260508034519 50 154 0.0 0.0 0.00 0.68 0.49 96 1013.5
20260508033015 50 154 0.0 0.0 0.00 0.68 0.49 96 1013.3
20260508031519 51 154 0.0 0.0 0.00 0.68 0.49 96 1013.3
20260508030012 51 154 0.0 0.0 0.00 0.68 0.49 96 1013.1
20260508024510 52 154 0.0 0.0 0.00 0.70 0.49 96 1013.1
20260508023006 52 154 0.0 0.0 0.00 0.70 0.49 96 1012.8
20260508021505 53 154 0.0 0.0 0.00 0.70 0.49 96 1012.8
20260508020100 53 154 0.0 0.0 0.00 0.70 0.49 96 1012.4
20260508020003 54 154 0.0 0.0 0.00 0.70 0.49 96 1012.4
20260508014600 54 154 0.0 0.0 0.00 0.70 0.49 97 1012.2
20260508013106 54 154 0.0 0.0 0.00 0.70 0.49 97 1012.0
20260508011559 54 154 0.0 0.0 0.00 0.70 0.49 96 1011.6
20260508010056 54 154 0.0 0.0 0.00 0.70 0.49 96 1011.3
20260508004555 55 154 0.0 0.0 0.00 0.70 0.49 96 1011.2
20260508003053 55 154 0.0 0.0 0.00 0.70 0.49 96 1011.3
20260508001553 55 17 0.0 1.0 0.00 0.70 0.49 96 1011.5
20260508000052 55 25 0.0 0.0 0.00 0.70 0.49 96 1011.3
20260507234553 55 25 0.0 1.0 0.00 0.70 0.49 96 1010.7
20260507233053 55 25 0.0 0.0 0.00 0.70 0.49 96 1010.4
20260507231549 55 25 0.0 0.0 0.00 0.70 0.49 96 1010.3
20260507230055 55 25 0.0 1.0 0.00 0.70 0.49 96 1010.0
20260507224548 55 25 0.0 2.0 0.00 0.70 0.49 96 1009.9
20260507223048 56 5 0.0 2.0 0.02 0.70 0.49 96 1009.9
20260507221547 56 12 0.0 5.0 0.02 0.70 0.49 96 1009.9
20260507220046 56 184 0.0 4.0 0.03 0.70 0.49 96 1009.6
20260507214646 56 298 0.0 1.0 0.05 0.70 0.49 96 1009.5